Find TSX-5

NORAD ID: 26374 Int'l Des: 2000-030 Owner: STP Country: US operational
LEO

リアルタイム位置

3D地球を読み込み中...

TSX-5について

説明を読み込み中...

次回通過

Passes for default location (London). Set your location on the main map for personalized predictions.

高度履歴

Loading altitude history...

軌道要素

1 26374U 00030A 26106.18010264 .00006131 00000-0 33131-3 0 9997
2 26374 68.9116 135.2139 0434952 134.7690 228.9710 14.59615422313506
Epoch: Apr 16, 2026 • Age: 14 hours

現在のステータス

高度 392.4 km
速度 7.84 km/s
衛星直下点 42.94°N, 176.9°E
打ち上げ日 Jun 7, 2000
運用期間 25.8 years
タイプ other

技術仕様

分類 Payload
質量 250.00 kg
乾燥質量 250.00 kg
総質量 250.00 kg
長さ 1.20 m
直径 1.00 m
スパン 3.00 m
形状 Cyl + Curved Pan
製造者 OSCM
バスタイプ LEOStar
フェーズステータス In Orbit
所有者/国 STP/US

Most Searched